SALT Weather Reports


time (UTC)temp
C
wind
direction
speed
KPH
gust
KPH
rain 1hr
cm
rain 24hr
cm
rain mn
cm
humidity
%
barometer
mb
20260503050450 11 279 1.6 0.0 0.00 0.00 0.00 46 1020.1
20260503045447 10 302 0.0 0.0 0.00 0.00 0.00 47 1020.0
20260503044444 10 278 0.0 0.0 0.00 0.00 0.00 49 1020.1
20260503043442 10 267 0.0 0.0 0.00 0.00 0.00 50 1020.0
20260503042437 10 278 0.0 0.0 0.00 0.00 0.00 50 1020.0
20260503041435 10 278 0.0 0.0 0.00 0.00 0.00 49 1020.0
20260503040432 11 277 0.0 0.0 0.00 0.00 0.00 47 1019.9
20260503035430 11 278 0.0 0.0 0.00 0.00 0.00 47 1019.8
20260503034427 11 278 0.0 0.0 0.00 0.00 0.00 47 1019.6
20260503033425 11 266 0.0 0.0 0.00 0.00 0.00 47 1019.5
20260503032419 11 246 0.0 0.0 0.00 0.00 0.00 48 1019.4
20260503031417 11 279 0.0 0.0 0.00 0.00 0.00 47 1019.2
20260503030414 11 274 0.0 0.0 0.00 0.00 0.00 46 1019.1
20260503025412 11 283 0.0 0.0 0.00 0.00 0.00 48 1019.2
20260503024408 12 301 0.0 0.0 0.00 0.00 0.00 47 1019.2
20260503023407 12 302 0.0 0.0 0.00 0.00 0.00 46 1019.2
20260503022402 13 320 0.0 0.0 0.00 0.00 0.00 45 1019.2
20260503021359 13 317 3.2 0.0 0.00 0.00 0.00 44 1019.2
20260503020356 13 301 0.0 0.0 0.00 0.00 0.00 41 1019.2
20260503015528 14 273 0.0 0.0 0.00 0.00 0.00 39 1019.2
20260503015353 14 273 0.0 0.0 0.00 0.00 0.00 39 1019.2
20260503014351 13 275 0.0 0.0 0.00 0.00 0.00 39 1019.2
20260503013348 13 227 3.2 0.0 0.00 0.00 0.00 40 1019.3
20260503012343 13 225 4.8 0.0 0.00 0.00 0.00 42 1019.3
20260503011340 13 235 8.0 0.0 0.00 0.00 0.00 42 1019.6
20260503010419 13 324 0.0 0.0 0.00 0.00 0.00 41 1019.5
20260503010338 13 324 0.0 0.0 0.00 0.00 0.00 41 1019.5
20260503005335 13 233 1.6 0.0 0.00 0.00 0.00 43 1019.6
20260503004332 13 288 3.2 0.0 0.00 0.00 0.00 40 1019.5
20260503003331 14 282 9.7 0.0 0.00 0.00 0.00 39 1019.5
20260503002325 15 327 0.0 0.0 0.00 0.00 0.00 36 1019.2
20260503001322 15 31 0.0 0.0 0.00 0.00 0.00 34 1019.1
20260503000321 16 31 0.0 0.0 0.00 0.00 0.00 32 1019.0
20260502235317 16 346 0.0 0.0 0.00 0.00 0.00 32 1019.0
20260502234315 16 131 3.2 0.0 0.00 0.00 0.00 29 1019.0
20260502233312 16 151 0.0 0.0 0.00 0.00 0.00 29 1019.1
20260502232308 16 47 0.0 0.0 0.00 0.00 0.00 30 1019.1
20260502231351 16 336 3.2 0.0 0.00 0.00 0.00 30 1019.1
20260502231320 16 354 0.0 0.0 0.00 0.00 0.00 30 1019.2
20260502231304 16 336 3.2 0.0 0.00 0.00 0.00 30 1019.1
20260502230302 16 354 0.0 0.0 0.00 0.00 0.00 30 1019.2
20260502225152 16 316 3.2 0.0 0.00 0.00 0.00 29 1019.2
20260502224301 16 316 3.2 0.0 0.00 0.00 0.00 29 1019.2
20260502223255 17 264 1.6 0.0 0.00 0.00 0.00 29 1019.5
20260502222250 16 309 0.0 0.0 0.00 0.00 0.00 30 1019.6
20260502221247 16 301 1.6 0.0 0.00 0.00 0.00 29 1019.6
20260502220244 16 343 0.0 0.0 0.00 0.00 0.00 31 1019.8
20260502215241 16 299 4.8 0.0 0.00 0.00 0.00 30 1019.8
20260502214239 16 257 1.6 0.0 0.00 0.00 0.00 30 1019.9
20260502213236 16 339 0.0 0.0 0.00 0.00 0.00 32 1020.0
20260502212231 16 338 9.7 0.0 0.00 0.00 0.00 29 1020.1
20260502211229 17 301 6.4 0.0 0.00 0.00 0.00 27 1019.9
20260502210226 17 295 3.2 0.0 0.00 0.00 0.00 28 1020.1
20260502205222 17 114 1.6 0.0 0.00 0.00 0.00 27 1020.0
20260502204220 17 110 3.2 0.0 0.00 0.00 0.00 26 1020.1
20260502203217 17 123 3.2 0.0 0.00 0.00 0.00 28 1020.2
20260502202212 17 156 8.0 0.0 0.00 0.00 0.00 24 1020.2
20260502201210 17 142 4.8 0.0 0.00 0.00 0.00 25 1020.4
20260502200207 17 138 4.8 0.0 0.00 0.00 0.00 24 1020.3
20260502195204 17 166 8.0 0.0 0.00 0.00 0.00 25 1020.5
20260502194203 17 160 1.6 0.0 0.00 0.00 0.00 24 1020.7
20260502193159 17 183 3.2 0.0 0.00 0.00 0.00 25 1020.8
20260502192154 17 138 6.4 0.0 0.00 0.00 0.00 24 1020.9
20260502191152 17 219 6.4 0.0 0.00 0.00 0.00 23 1021.1
20260502190149 17 143 4.8 0.0 0.00 0.00 0.00 23 1021.2
20260502185147 17 127 4.8 0.0 0.00 0.00 0.00 23 1021.1
20260502183141 16 123 8.0 0.0 0.00 0.00 0.00 23 1021.1
20260502182136 16 206 1.6 0.0 0.00 0.00 0.00 24 1021.3
20260502181135 16 141 1.6 0.0 0.00 0.00 0.00 25 1021.3
20260502180131 16 168 1.6 0.0 0.00 0.00 0.00 24 1021.3
20260502170113 15 143 4.8 0.0 0.00 0.00 0.00 23 1021.4
20260502164108 14 143 3.2 0.0 0.00 0.00 0.00 23 1021.4
20260502162100 14 185 1.6 0.0 0.00 0.00 0.00 25 1021.4
20260502161058 14 127 1.6 0.0 0.00 0.00 0.00 25 1021.5
20260502152042 12 148 1.6 0.0 0.00 0.00 0.00 29 1021.7
20260502151040 12 216 4.8 0.0 0.00 0.00 0.00 28 1021.7
20260502122953 10 211 4.8 0.0 0.00 0.00 0.00 37 1021.4
20260502121949 10 213 0.0 0.0 0.00 0.00 0.00 36 1021.4
20260502120946 11 212 8.0 0.0 0.00 0.00 0.00 36 1021.5
20260502114941 10 208 8.0 0.0 0.00 0.00 0.00 37 1021.7
20260502113938 10 206 3.2 0.0 0.00 0.00 0.00 38 1021.7
20260502112935 10 193 6.4 0.0 0.00 0.00 0.00 39 1021.8
20260502111931 10 155 4.8 0.0 0.00 0.00 0.00 39 1021.8
20260502110927 10 162 0.0 0.0 0.00 0.00 0.00 40 1021.8
20260502105925 10 184 0.0 0.0 0.00 0.00 0.00 41 1022.0
20260502104922 8 209 0.0 0.0 0.00 0.00 0.00 46 1022.1
20260502103919 8 179 0.0 0.0 0.00 0.00 0.00 47 1022.1
20260502102917 8 144 0.0 0.0 0.00 0.00 0.00 47 1022.1
20260502101912 8 145 0.0 0.0 0.00 0.00 0.00 48 1022.2
20260502100909 8 158 0.0 0.0 0.00 0.00 0.00 47 1022.2
20260502090851 8 170 0.0 0.0 0.00 0.00 0.00 39 1022.4
20260502070816 7 172 1.6 0.0 0.00 0.00 0.00 42 1022.7
20260502065813 7 129 1.6 0.0 0.00 0.00 0.00 43 1022.7
20260502064810 7 140 0.0 0.0 0.00 0.00 0.00 45 1022.7
20260502063807 7 169 1.6 0.0 0.00 0.00 0.00 46 1022.6
20260502062805 8 107 1.6 0.0 0.00 0.00 0.00 45 1022.6
20260502061800 7 117 1.6 0.0 0.00 0.00 0.00 45 1022.6
20260502060757 7 135 1.6 0.0 0.00 0.00 0.00 47 1022.7
20260502055755 7 179 3.2 0.0 0.00 0.00 0.00 47 1022.7
20260502054752 7 152 1.6 0.0 0.00 0.00 0.00 46 1022.7
20260502053749 7 146 0.0 0.0 0.00 0.00 0.00 52 1022.9
20260502052747 7 125 0.0 0.0 0.00 0.00 0.00 52 1022.9
20260502051742 7 133 0.0 0.0 0.00 0.00 0.00 52 1023.0
20260502050739 8 163 0.0 0.0 0.00 0.00 0.00 50 1023.0